"Pseudo-MPEC" for P11JuVL

Created 2023 Oct 5 2:22:07 UT using Find_Orb

Click here for an explanation of pseudo-MPECs

 
 Astrometry: 
     P11JuVL* C2023 09 14xk]rxf:yv!gcr*l7'8_tIq?=oblk-k]-(/_o#9k$Z.P`8wR?i7m8F51
     P11JuVL  C2023 09 14.f/WN!H6F_wOI7xLPAstrometryi+0Q[Kredacted;i2#c!nVmVwF51
     P11JuVL  C2023 09 143%X5;$umSD*+J4N/x%kIoWX3thPe]ck;y`sN-'L72v%a,$fQM5bTF51
     P11JuVL  C2023 09 14GuN6V%U9B.u;'IHbu`uLe62C=ql%%9U-)129$/9f*TclickG.W0]F51
     P11JuVL 2C2023 09 14=_/\uuQlQCLV7'c@lPYJ9M6C[]+8GiU,Rl'NLYt#VF3m'P4MGw?tK93
     P11JuVL 2C2023 09 143=0KHHrkX%DJ`LP?hereF-PG@CNp1QYSJ-AA=lD@5xwY^+RW,_-SK93
     P11JuVL 2C2023 09 14%+[O7uk+]2LTXptP,rforN?tfKw1e_dDjyN,7T\(9snfM6HVvt*IK93
     P11JuVL 2C2023 09 14JAOHRo-pmQoA],Pshil6/@FBMvp18?\3I^?explanationrE5ev+K93

Station data:
(F51) Pan-STARRS 1, Haleakala  (N20.707234 W156.255910)  US/Hawaii.
   Observers J. Bulger, T. Lowe, A. Schultz, M. Willman. Measurers K.
   Chambers, S. Chastel, T. de Boer, L. Denneau, J. Fairlamb, H. Flewelling,
   M. Huber, C.-C. Lin, E. Magnier, Y. Ramanjooloo, R. Wainscoat, R. Weryk.
   1.8-m Ritchey-Chrétien + CCD.
(K93) Sutherland-LCOGT C  (S32.380667 E20.810110)  South Africa.  Observer J.
   D. Armstrong. 1.0-m f/8.0 Ritchey-Chrétien + CCD.

Orbital elements:  P11JuVL
   Perihelion 2023 Dec 13.65773 +/- 69.1 TT = 15:47:08 (JD 2460292.15773)
Epoch 2023 Sep 15.0 TT = JDT 2460202.5   Earth MOID: 0.3385   Ju: 0.9236
M 354.83520594 +/- 9                Ma: 0.0937   Sa: 0.1424      AutoNEOCP
n   0.05760567 +/- 0.0724           Peri.   14.99680 +/- 80
a   6.63986445 +/- 5.56             Node    41.05183 +/- 20
e   0.8013751 +/- 0.188             Incl.   22.61262 +/- 3.6
P  17.11                   H 19.00  G  0.15   U 11.0  SR
q 1.31884175 +/- 0.3    Q 11.9608871 +/- 5.29             (J2000 ecliptic)
From 8 observations 2023 Sept. 14 (11.5 hr); mean residual 0".08
Residuals in arcseconds: 
230914 F51  .16+  .13+    230914 F51  .09-  .07-    230914 K93  .02+  .06-    
230914 F51  .03-  .00     230914 K93  .05-  .02+    230914 K93  .13+  .05+    
230914 F51  .05-  .07-    230914 K93  .06-  .03+    

Ephemerides (geocentric):
Date (UTC) HH   RA             Dec           delta  r     elong  mag " sig PA
---- --------  ------------   ------------  ------ ------ -----  --- --------
2023 10 05 02  00 40 23.776   -32 34 38.13  .68737 1.6033 143.0 20.3 2300  63
2023 10 05 03  00 40 20.286   -32 34 08.42  .68710 1.6030 143.0 20.3 2312  63
2023 10 05 04  00 40 16.793   -32 33 38.62  .68684 1.6028 143.0 20.3 2323  63
2023 10 05 05  00 40 13.299   -32 33 08.71  .68657 1.6025 142.9 20.3 2334  63
2023 10 05 06  00 40 09.802   -32 32 38.71  .68630 1.6022 142.9 20.3 2345  63
2023 10 05 07  00 40 06.304   -32 32 08.61  .68603 1.6019 142.9 20.3 2356  63
2023 10 05 08  00 40 02.803   -32 31 38.41  .68576 1.6016 142.9 20.3 2367  63
2023 10 05 09  00 39 59.300   -32 31 08.10  .68549 1.6013 142.9 20.3 2379  63
2023 10 05 10  00 39 55.796   -32 30 37.70  .68523 1.6010 142.9 20.3 2390  63
2023 10 05 11  00 39 52.289   -32 30 07.20  .68496 1.6007 142.9 20.3 2401  63
2023 10 05 12  00 39 48.780   -32 29 36.60  .68469 1.6004 142.9 20.3 2413  63
2023 10 05 13  00 39 45.269   -32 29 05.90  .68443 1.6001 142.9 20.3 2424  63
2023 10 05 14  00 39 41.757   -32 28 35.10  .68416 1.5998 142.9 20.3 2436  63
2023 10 05 15  00 39 38.242   -32 28 04.19  .68389 1.5995 142.9 20.3 2447  63
2023 10 05 16  00 39 34.725   -32 27 33.19  .68363 1.5992 142.9 20.3 2459  63
2023 10 05 17  00 39 31.207   -32 27 02.09  .68336 1.5989 142.8 20.3 2470  63
2023 10 05 18  00 39 27.686   -32 26 30.88  .68310 1.5986 142.8 20.3 2482  63
2023 10 05 19  00 39 24.163   -32 25 59.58  .68283 1.5983 142.8 20.3 2494  63
2023 10 05 20  00 39 20.639   -32 25 28.17  .68257 1.5980 142.8 20.3 2505  63
2023 10 05 21  00 39 17.113   -32 24 56.67  .68230 1.5977 142.8 20.3 2517  63
2023 10 05 22  00 39 13.584   -32 24 25.06  .68204 1.5974 142.8 20.3 2529  63
2023 10 05 23  00 39 10.054   -32 23 53.35  .68177 1.5971 142.8 20.3 2541  63
2023 10 06 00  00 39 06.522   -32 23 21.54  .68151 1.5968 142.8 20.3 2552  63
2023 10 06 01  00 39 02.988   -32 22 49.63  .68125 1.5965 142.8 20.2 2564  63
2023 10 06 02  00 38 59.452   -32 22 17.62  .68098 1.5962 142.8 20.2 2576  63
2023 10 06 03  00 38 55.914   -32 21 45.50  .68072 1.5959 142.8 20.2 2588  63
2023 10 06 04  00 38 52.375   -32 21 13.29  .68046 1.5956 142.7 20.2 2600  63
2023 10 06 05  00 38 48.834   -32 20 40.97  .68019 1.5953 142.7 20.2 2612  62
2023 10 06 06  00 38 45.290   -32 20 08.55  .67993 1.5950 142.7 20.2 2624  62
2023 10 06 07  00 38 41.746   -32 19 36.03  .67967 1.5947 142.7 20.2 2636  62
2023 10 06 08  00 38 38.199   -32 19 03.41  .67941 1.5945 142.7 20.2 2648  62
2023 10 06 09  00 38 34.650   -32 18 30.68  .67915 1.5942 142.7 20.2 2660  62
2023 10 06 10  00 38 31.100   -32 17 57.85  .67889 1.5939 142.7 20.2 2672  62
2023 10 06 11  00 38 27.548   -32 17 24.92  .67863 1.5936 142.7 20.2 2685  62
2023 10 06 12  00 38 23.994   -32 16 51.89  .67837 1.5933 142.7 20.2 2697  62
2023 10 06 13  00 38 20.439   -32 16 18.76  .67811 1.5930 142.7 20.2 2709  62
2023 10 06 14  00 38 16.881   -32 15 45.52  .67785 1.5927 142.7 20.2 2721  62
2023 10 06 15  00 38 13.322   -32 15 12.18  .67759 1.5924 142.6 20.2 2734  62
2023 10 06 16  00 38 09.762   -32 14 38.74  .67733 1.5921 142.6 20.2 2746  62
2023 10 06 17  00 38 06.199   -32 14 05.19  .67707 1.5918 142.6 20.2 2759  62
2023 10 06 18  00 38 02.635   -32 13 31.54  .67681 1.5915 142.6 20.2 2771  62
2023 10 06 19  00 37 59.069   -32 12 57.79  .67655 1.5912 142.6 20.2 2784  62
2023 10 06 20  00 37 55.502   -32 12 23.93  .67629 1.5909 142.6 20.2 2796  62
2023 10 06 21  00 37 51.933   -32 11 49.97  .67603 1.5906 142.6 20.2 2809  62
2023 10 06 22  00 37 48.362   -32 11 15.91  .67578 1.5903 142.6 20.2 2821  62
2023 10 06 23  00 37 44.790   -32 10 41.75  .67552 1.5900 142.6 20.2 2834  62
2023 10 07 00  00 37 41.216   -32 10 07.48  .67526 1.5897 142.6 20.2 2847  62
2023 10 07 01  00 37 37.641   -32 09 33.10  .67500 1.5895 142.5 20.2 2859  62